Weather in Gorkaya Balka

Russia / Krasnodar Krai     46˚05′33″N   40˚41′07″E
temp.,
°C
wind,
m/s
gust,
m/s
humid.,
%
clouds,
%
prec.,
mm/h
press.,
hPa
HPBL,
m
15 january, fri
fri1500:00+1˚ene4673100 0.0 1006318
03:00ne3595100 0.8 1005305
06:00−1˚ne4797100 5.4 1004365
09:00−1˚n3598100 10.9 1006300
12:00−1˚wnw34100100 0.5 1008345
15:00wnw589195 0.7 1009752
18:00−1˚w499289 0.1 1011400
21:00−2˚w499594 0.1 1013310
16 january, sat
sat1600:00−3˚sw369367 0.0 1013114
03:00−4˚sw479133 0.0 1013139
06:00−2˚wsw499733 0.4 1013334
09:00−3˚w4108952 0.6 1016520
12:00−2˚w57810 0.0 1017776
15:00−2˚w358211 0.0 1016724
18:00−5˚ssw118954 0.0 101721
21:00−5˚s019076 0.0 101821
17 january, sun
sun1700:00−4˚nne3490100 0.0 101791
03:00−5˚ne5889100 0.0 1015264
06:00−6˚ene61188100 0.0 1013369
09:00−6˚ene71292100 0.1 1012507
12:00−5˚ene91494100 1.6 1010642
15:00−4˚ene81295100 3.7 1008741
18:00−4˚ene81493100 1.4 1008704
21:00−4˚ene91494100 2.2 1008612
18 january, mon
mon1800:00−5˚ene81295100 2.8 1007541
03:00−6˚ene71195100 7.5 1007486
06:00−6˚ne5896100 5.8 1009401
09:00−7˚nne2496100 7.9 1012236
12:00−6˚nw2390100 0.6 1014400
15:00−7˚wnw5791100 0.7 1015626
18:00−9˚wnw4792100 0.1 1018392
21:00−11˚w4696100 0.1 1020104
19 january, tue
tue1900:00−13˚w3493100 0.0 102177
03:00−13˚w3394100 0.0 102245
06:00−14˚w239778 0.0 102320
09:00−13˚wsw229770 0.0 102422
12:00−8˚wsw239289 0.0 1023270
15:00−6˚wsw128995 0.1 1022332
18:00−11˚nw019699 0.0 102221
21:00−11˚ene2396100 0.1 102427